[Date Prev][Date Next][Thread Prev][Thread Next] - [Date Index][Thread Index][Author Index]
2 Line ISS Keps 3-26
- Subject: [sarex] 2 Line ISS Keps 3-26
- From: "Dave Larsen Ph.D." <doc@xxxxxxxxxxx>
- Date: Wed, 26 Mar 2003 00:13:14 -0800
ISS
1 25544U 98067A 03085.16284256 .00010969 00000-0 14357-3 0 8177
2 25544 51.6350 77.2266 0008275 12.5900 84.6408 15.59143502248055
----
Via the sarex mailing list at AMSAT.ORG courtesy of AMSAT-NA.
To unsubscribe, send "unsubscribe sarex" to Majordomo@amsat.org
AMSAT Home